Terminal Aerodrome Forecast
Issued by NWS

Home | Current Version | Previous Version | Text Only | Print | Product List | Glossary On
Versions: 1 2 3 4 5 6 7 8 9 10 11 12
000
FTUS45 KABQ 180500
TAFROW
TAF
KROW 180524Z 1806/1906 18005KT P6SM SKC
     FM181100 15009KT P6SM BKN025
     FM181600 17011KT P6SM SCT040
     FM181900 16013G19KT P6SM FEW200
     FM190200 17010KT P6SM BKN200=

USA.gov is the U.S. government's official web portal to all federal, state and local government web resources and services.